Content
SEND FEEDBACK

Daily
Averages
Monthly
Summary
Germany

MUNICH, GERMANY


Home > Europe > Germany
Elevation: 1735 feet     Latitude: 48 08N     Longitude: 011 42E

WEATHER
 
SELECT A DAY
Number of Records: 292,059;   Date Range: 7/1/96 - 8/20/14
 
SHARE

PRINT THIS DATA

[ ← Previous Day ]
WEATHER ALMANAC - MAY 14, 2013
[ Next Day → ]
[ °C ]   °F
Weather ElementAverageHighLow
Temperature56.2 °F64.4 °F (3:20 pm)46.4 °F (2:20 am)
Dewpoint46.8 °F50 °F (12:20 pm)42.8 °F (11:50 am)
Humidity72.1 %100 % (3:50 am)52 % (3:20 pm)
Barometer29.90 in30.01 in (12:50 am)29.74 in (11:20 pm)
Wind Speed5.1 mph10.4 mph (6:50 pm)
Weather ElementAverage
Visibility6.2 mi
Wind DirectionSSE (162.6 °)

Weather ElementTotal
Precipitation---
Heating Degree Days9.6 (Base 65)
Growing Degree Days5.4 (Base 50)
Averaged from 46 records on May 14, 2013
WEATHER CONDITIONS BREAKOUT
WIND DIRECTION BREAKOUT
WEATHER BY HOUR - MAY 14, 2013
[ °C ]   °F
Local TimeTemperatureDewpointHumidityBarometerVisibilityWind DirectionWind SpeedGust SpeedPrecipitationEventsConditions
12:50 AM48.2 °F44.6 °F87 %30.01 inSSW (210°)3.5 mphClear
1:20 AM48.2 °F44.6 °F87 %30.01 inSSW (210°)3.5 mphClear
2:20 AM46.4 °F44.6 °F93 %30.01 inWest (260°)2.3 mphClear
2:50 AM46.4 °F44.6 °F93 %30.01 inSSW (200°)4.6 mphClear
3:20 AM46.4 °F44.6 °F93 %29.98 inSouth (190°)3.5 mphClear
3:50 AM46.4 °F46.4 °F100 %29.98 in6.2 miWSW (250°)2.3 mphMostly Cloudy
4:20 AM48.2 °F44.6 °F87 %29.98 in6.2 miWest (260°)3.5 mphMostly Cloudy
4:50 AM46.4 °F44.6 °F93 %29.98 in6.2 miSW (230°)2.3 mphMostly Cloudy
5:20 AM48.2 °F44.6 °F87 %29.98 inSSW (210°)2.3 mphClear
5:50 AM46.4 °F44.6 °F93 %29.98 inSSW (200°)3.5 mphClear
6:20 AM46.4 °F44.6 °F93 %29.98 inSouth (170°)3.5 mphClear
6:50 AM48.2 °F46.4 °F93 %29.98 in6.2 miSSW (210°)4.6 mphMostly Cloudy
7:20 AM50.0 °F46.4 °F87 %29.98 in6.2 miSSW (210°)4.6 mphMostly Cloudy
7:50 AM51.8 °F46.4 °F82 %29.98 in6.2 miSW (230°)5.8 mphMostly Cloudy
8:20 AM53.6 °F46.4 °F77 %29.98 in6.2 miSW (220°)6.9 mphMostly Cloudy
8:50 AM55.4 °F46.4 °F72 %29.98 in6.2 miWSW (240°)6.9 mphScattered Clouds
9:20 AM55.4 °F48.2 °F77 %29.98 in6.2 miSW (230°)5.8 mphMostly Cloudy
9:50 AM57.2 °F46.4 °F67 %29.98 in6.2 miWSW (240°)4.6 mphMostly Cloudy
10:20 AM57.2 °F44.6 °F63 %29.98 in6.2 miWest (260°)4.6 mphScattered Clouds
10:50 AM59.0 °F44.6 °F59 %29.95 in6.2 miNorth (350°)4.6 mphScattered Clouds
11:20 AM59.0 °F46.4 °F63 %29.95 in6.2 miWest (280°)6.9 mphMostly Cloudy
11:50 AM59.0 °F42.8 °F55 %29.95 in6.2 miWest (270°)5.8 mphMostly Cloudy
12:20 PM60.8 °F50.0 °F68 %29.92 in6.2 miWest (280°)5.8 mphMostly Cloudy
12:50 PM60.8 °F44.6 °F55 %29.92 in6.2 miWest (260°)4.6 mphMostly Cloudy
1:20 PM62.6 °F46.4 °F55 %29.92 in6.2 miVariable3.5 mphMostly Cloudy
1:50 PM60.8 °F48.2 °F63 %29.89 in6.2 miVariable3.5 mphMostly Cloudy
2:20 PM62.6 °F48.2 °F59 %29.89 in6.2 miNE (50°)4.6 mphMostly Cloudy
2:50 PM62.6 °F46.4 °F55 %29.89 in6.2 miNorth (360°)4.6 mphMostly Cloudy
3:20 PM64.4 °F46.4 °F52 %29.86 in6.2 miEast (80°)4.6 mphMostly Cloudy
3:50 PM64.4 °F50.0 °F59 %29.86 in6.2 miNE (50°)5.8 mphMostly Cloudy
4:20 PM64.4 °F46.4 °F52 %29.83 in6.2 miENE (60°)4.6 mphMostly Cloudy
4:50 PM64.4 °F48.2 °F56 %29.83 in6.2 miENE (60°)4.6 mphMostly Cloudy
5:20 PM64.4 °F48.2 °F56 %29.83 in6.2 miEast (80°)5.8 mphMostly Cloudy
5:50 PM64.4 °F48.2 °F56 %29.80 in6.2 miEast (80°)8.1 mphScattered Clouds
6:20 PM62.6 °F48.2 °F59 %29.80 in6.2 miENE (70°)6.9 mphScattered Clouds
6:50 PM62.6 °F50.0 °F63 %29.80 in6.2 miEast (80°)10.4 mphPartly Cloudy
7:20 PM62.6 °F50.0 °F63 %29.80 inEast (80°)6.9 mphClear
7:50 PM62.6 °F50.0 °F63 %29.80 inEast (90°)6.9 mphClear
8:20 PM60.8 °F48.2 °F63 %29.80 inEast (90°)6.9 mphClear
8:50 PM59.0 °F48.2 °F67 %29.77 inEast (90°)5.8 mphClear
9:20 PM59.0 °F48.2 °F67 %29.77 inEast (80°)6.9 mphClear
9:50 PM57.2 °F48.2 °F72 %29.77 inEast (80°)6.9 mphClear
10:20 PM57.2 °F48.2 °F72 %29.77 inEast (90°)8.1 mphClear
10:50 PM55.4 °F48.2 °F77 %29.77 inENE (70°)4.6 mphClear
11:20 PM55.4 °F48.2 °F77 %29.74 inENE (70°)4.6 mphClear
11:50 PM51.8 °F48.2 °F88 %29.74 inEast (100°)3.5 mphClear
Hourly data recorded from EDDM, located miles away from Munich, Germany







STORIES FROM OUR PARTNERS